AFR334M LFPG-KBOS

Flight info

Callsign AFR334M
Flight time 7h 7m
Altitude 38000
Route ELCOB UT300 SENLO UN502 JSY DCT LIZAD DCT ARKIL DCT UNLID DCT LIMRI/M084F380 DCT 53N020W 53N030W 53N040W 52N050W DCT TUDEP/N0482F380 N526A TOPPS DCT AJJAY OOSHN5
Aircraft A359/H-SDE2E3GHIJ3J4J5LM1ORWXY/LB1D1

Departure

Time 2026-05-07 11:19
Airport Charles de Gaulle International Airport (LFPG)

Arrival

Time 2026-05-07 18:27
Airport Boston Logan International Airport (KBOS)
Time Latitude Longitude Altitude Speed Heading
2026-05-07 10:21 49.00705 2.59157 360 ft 0 kts 265°
2026-05-07 11:05 49.00706 2.59178 366 ft 4 kts 265°
2026-05-07 11:05 49.00709 2.59218 366 ft 4 kts 269°
2026-05-07 11:06 49.00711 2.59254 365 ft 4 kts 252°
2026-05-07 11:06 49.00718 2.59278 366 ft 4 kts 208°
2026-05-07 11:06 49.00739 2.59287 366 ft 4 kts 178°
2026-05-07 11:06 49.00763 2.59284 365 ft 2 kts 175°
2026-05-07 11:07 49.00764 2.59284 365 ft 0 kts 175°
2026-05-07 11:09 49.00759 2.59285 360 ft 4 kts 175°
2026-05-07 11:09 49.00703 2.59292 363 ft 9 kts 175°
2026-05-07 11:09 49.00646 2.59320 365 ft 6 kts 126°
2026-05-07 11:09 49.00640 2.59385 365 ft 8 kts 90°
2026-05-07 11:10 49.00605 2.59436 366 ft 9 kts 165°
2026-05-07 11:10 49.00523 2.59447 364 ft 15 kts 175°
2026-05-07 11:10 49.00399 2.59462 362 ft 19 kts 175°
2026-05-07 11:10 49.00264 2.59479 364 ft 20 kts 175°
2026-05-07 11:11 49.00170 2.59492 362 ft 10 kts 175°
2026-05-07 11:11 49.00094 2.59496 367 ft 10 kts 193°
2026-05-07 11:11 49.00071 2.59437 367 ft 6 kts 263°
2026-05-07 11:11 49.00066 2.59332 365 ft 15 kts 266°
2026-05-07 11:12 49.00058 2.59147 366 ft 18 kts 265°
2026-05-07 11:12 49.00047 2.58947 366 ft 19 kts 264°
2026-05-07 11:12 49.00035 2.58738 360 ft 20 kts 265°
2026-05-07 11:12 49.00023 2.58518 360 ft 21 kts 265°
2026-05-07 11:13 49.00012 2.58290 365 ft 22 kts 264°
2026-05-07 11:13 48.99998 2.58056 363 ft 21 kts 265°
2026-05-07 11:13 48.99986 2.57834 366 ft 21 kts 265°
2026-05-07 11:13 48.99974 2.57603 367 ft 22 kts 265°
2026-05-07 11:14 48.99962 2.57363 362 ft 23 kts 266°
2026-05-07 11:14 48.99949 2.57116 365 ft 24 kts 264°
2026-05-07 11:14 48.99934 2.56863 360 ft 24 kts 265°
2026-05-07 11:14 48.99920 2.56606 363 ft 25 kts 265°
2026-05-07 11:15 48.99905 2.56339 360 ft 26 kts 265°
2026-05-07 11:15 48.99893 2.56067 360 ft 26 kts 268°
2026-05-07 11:15 48.99901 2.55857 364 ft 12 kts 273°
2026-05-07 11:15 48.99870 2.55802 364 ft 6 kts 199°
2026-05-07 11:16 48.99804 2.55804 366 ft 13 kts 176°
2026-05-07 11:16 48.99714 2.55811 360 ft 13 kts 177°
2026-05-07 11:16 48.99685 2.55813 362 ft 0 kts 178°
2026-05-07 11:17 48.99677 2.55813 363 ft 4 kts 178°
2026-05-07 11:17 48.99629 2.55824 365 ft 9 kts 158°
2026-05-07 11:17 48.99608 2.55863 361 ft 3 kts 111°
2026-05-07 11:17 48.99606 2.55899 365 ft 5 kts 97°
2026-05-07 11:18 48.99606 2.55935 362 ft 0 kts 86°
2026-05-07 11:19 48.99621 2.56223 365 ft 60 kts 85°
2026-05-07 11:19 48.99672 2.57187 365 ft 121 kts 85°
2026-05-07 11:19 48.99752 2.58740 409 ft 167 kts 85°
2026-05-07 11:19 48.99837 2.60539 994 ft 173 kts 83°
2026-05-07 11:20 48.99920 2.62360 1886 ft 171 kts 83°
2026-05-07 11:20 48.99986 2.64095 2681 ft 158 kts 83°
2026-05-07 11:20 49.00037 2.65742 3241 ft 158 kts 83°
2026-05-07 11:20 49.00089 2.67459 3658 ft 166 kts 83°
2026-05-07 11:21 49.00124 2.68700 3936 ft 174 kts 84°
2026-05-07 11:21 49.00156 2.70600 4285 ft 186 kts 85°
2026-05-07 11:21 49.00227 2.72659 4509 ft 204 kts 82°
2026-05-07 11:21 49.00372 2.74921 4724 ft 223 kts 80°
2026-05-07 11:22 49.00577 2.77329 4941 ft 243 kts 79°
2026-05-07 11:22 49.00600 2.80014 5106 ft 267 kts 98°
2026-05-07 11:22 49.00168 2.82794 5809 ft 268 kts 102°
2026-05-07 11:22 48.99788 2.85555 6490 ft 270 kts 96°
2026-05-07 11:23 48.99531 2.88434 7098 ft 273 kts 95°
2026-05-07 11:23 48.99275 2.91287 7707 ft 276 kts 96°
2026-05-07 11:23 48.98997 2.94219 8305 ft 281 kts 97°
2026-05-07 11:23 48.98568 2.97142 8896 ft 285 kts 111°
2026-05-07 11:24 48.97446 2.99635 9545 ft 286 kts 140°
2026-05-07 11:24 48.95701 3.01035 10200 ft 285 kts 167°
2026-05-07 11:24 48.93704 3.01345 10524 ft 295 kts 180°
2026-05-07 11:24 48.91644 3.01017 10774 ft 308 kts 196°
2026-05-07 11:25 48.89722 2.99500 11010 ft 319 kts 223°
2026-05-07 11:25 48.88428 2.96726 11275 ft 329 kts 249°
2026-05-07 11:25 48.88057 2.93847 11510 ft 338 kts 270°
2026-05-07 11:25 48.88415 2.90279 11903 ft 345 kts 283°
2026-05-07 11:26 48.88945 2.86687 12394 ft 350 kts 281°
2026-05-07 11:26 48.89396 2.83074 12876 ft 354 kts 280°
2026-05-07 11:26 48.89801 2.79356 13361 ft 358 kts 279°
2026-05-07 11:26 48.90181 2.75584 13873 ft 360 kts 278°
2026-05-07 11:27 48.90544 2.71804 14316 ft 363 kts 278°
2026-05-07 11:27 48.90900 2.67986 14750 ft 366 kts 278°
2026-05-07 11:27 48.91253 2.64135 15194 ft 369 kts 277°
2026-05-07 11:27 48.91603 2.60294 15636 ft 372 kts 277°
2026-05-07 11:28 48.91956 2.56373 16071 ft 375 kts 277°
2026-05-07 11:28 48.92309 2.52420 16517 ft 378 kts 277°
2026-05-07 11:28 48.92664 2.48439 16972 ft 380 kts 277°
2026-05-07 11:28 48.93015 2.44485 17410 ft 383 kts 277°
2026-05-07 11:29 48.93371 2.40446 17864 ft 386 kts 277°
2026-05-07 11:29 48.93729 2.36376 18306 ft 389 kts 277°
2026-05-07 11:29 48.94088 2.32280 18698 ft 391 kts 277°
2026-05-07 11:29 48.94448 2.28154 19060 ft 394 kts 277°
2026-05-07 11:30 48.94804 2.24060 19448 ft 396 kts 277°
2026-05-07 11:30 48.95165 2.19882 19816 ft 398 kts 277°
2026-05-07 11:30 48.95527 2.15682 20175 ft 401 kts 277°
2026-05-07 11:30 48.95889 2.11453 20537 ft 403 kts 277°
2026-05-07 11:31 48.96251 2.07199 20911 ft 406 kts 277°
2026-05-07 11:31 48.96614 2.02936 21278 ft 408 kts 277°
2026-05-07 11:31 48.96973 1.98681 21636 ft 410 kts 277°
2026-05-07 11:31 48.97312 1.94351 21994 ft 413 kts 276°
2026-05-07 11:32 48.97820 1.85596 22706 ft 417 kts 274°
2026-05-07 11:32 48.98031 1.81170 23062 ft 419 kts 274°
2026-05-07 11:32 48.98238 1.76778 23411 ft 422 kts 274°
2026-05-07 11:33 48.98453 1.72302 23736 ft 424 kts 274°
2026-05-07 11:33 48.98674 1.67820 24046 ft 426 kts 274°
2026-05-07 11:33 48.98901 1.63294 24378 ft 427 kts 274°
2026-05-07 11:33 48.99129 1.58764 24679 ft 429 kts 274°
2026-05-07 11:34 48.99355 1.54277 24996 ft 431 kts 274°
2026-05-07 11:34 48.99584 1.49715 25327 ft 432 kts 274°
2026-05-07 11:34 48.99810 1.45152 25653 ft 433 kts 274°
2026-05-07 11:34 49.00037 1.40555 25969 ft 435 kts 274°
2026-05-07 11:35 49.00260 1.35955 26310 ft 437 kts 274°
2026-05-07 11:35 49.00484 1.31326 26666 ft 438 kts 274°
2026-05-07 11:35 49.00706 1.26677 27003 ft 440 kts 274°
2026-05-07 11:35 49.00927 1.22014 27354 ft 442 kts 274°
2026-05-07 11:36 49.01145 1.17391 27680 ft 444 kts 274°
2026-05-07 11:36 49.01366 1.12661 28044 ft 446 kts 274°
2026-05-07 11:36 49.01584 1.07925 28397 ft 448 kts 274°
2026-05-07 11:36 49.01801 1.03179 28733 ft 451 kts 274°
2026-05-07 11:37 49.02018 0.98392 29090 ft 453 kts 274°
2026-05-07 11:37 49.02234 0.93584 29462 ft 455 kts 274°
2026-05-07 11:37 49.02450 0.88749 29797 ft 458 kts 274°
2026-05-07 11:37 49.02661 0.83970 30139 ft 460 kts 274°
2026-05-07 11:38 49.02874 0.79086 30416 ft 462 kts 274°
2026-05-07 11:38 49.03086 0.74196 30704 ft 464 kts 274°
2026-05-07 11:38 49.03298 0.69266 30992 ft 466 kts 274°
2026-05-07 11:38 49.03507 0.64313 31272 ft 468 kts 274°
2026-05-07 11:39 49.03716 0.59339 31535 ft 470 kts 273°
2026-05-07 11:39 49.03923 0.54344 31800 ft 472 kts 273°
2026-05-07 11:39 49.04126 0.49396 32053 ft 474 kts 273°
2026-05-07 11:39 49.04331 0.44362 32305 ft 476 kts 273°
2026-05-07 11:40 49.04534 0.39324 32554 ft 478 kts 273°
2026-05-07 11:40 49.04735 0.34264 32894 ft 477 kts 273°
2026-05-07 11:40 49.04934 0.29215 33270 ft 476 kts 273°
2026-05-07 11:40 49.05129 0.24191 33631 ft 475 kts 273°
2026-05-07 11:41 49.05323 0.19158 33990 ft 474 kts 273°
2026-05-07 11:41 49.05512 0.14201 34307 ft 473 kts 273°
2026-05-07 11:41 49.05700 0.09202 34605 ft 473 kts 272°
2026-05-07 11:41 49.05886 0.04187 34853 ft 473 kts 272°
2026-05-07 11:42 49.06070 -0.00831 35109 ft 473 kts 272°
2026-05-07 11:42 49.06251 -0.05830 35375 ft 473 kts 272°
2026-05-07 11:42 49.06431 -0.10846 35625 ft 473 kts 272°
2026-05-07 11:42 49.06610 -0.15881 35849 ft 473 kts 272°
2026-05-07 11:43 49.06784 -0.20836 36093 ft 473 kts 272°
2026-05-07 11:43 49.06957 -0.25843 36334 ft 473 kts 272°
2026-05-07 11:43 49.07107 -0.30888 36563 ft 474 kts 271°
2026-05-07 11:43 49.07204 -0.35920 36788 ft 474 kts 270°
2026-05-07 11:44 49.07274 -0.40889 37010 ft 474 kts 270°
2026-05-07 11:44 49.07341 -0.45925 37251 ft 474 kts 270°
2026-05-07 11:44 49.07411 -0.50963 37477 ft 474 kts 270°
2026-05-07 11:44 49.07485 -0.55977 37683 ft 474 kts 270°
2026-05-07 11:45 49.07563 -0.61016 37878 ft 474 kts 270°
2026-05-07 11:45 49.07642 -0.66061 38036 ft 476 kts 270°
2026-05-07 11:45 49.07720 -0.71084 38047 ft 479 kts 270°
2026-05-07 11:46 49.07873 -0.81275 38059 ft 479 kts 270°
2026-05-07 11:46 49.08015 -0.91360 38060 ft 478 kts 270°
2026-05-07 11:47 49.08149 -1.01540 38047 ft 478 kts 270°
2026-05-07 11:47 49.08272 -1.11633 38052 ft 478 kts 270°
2026-05-07 11:48 49.09009 -1.21722 38052 ft 479 kts 281°
2026-05-07 11:48 49.10534 -1.31633 38054 ft 480 kts 283°
2026-05-07 11:49 49.12142 -1.41464 38049 ft 480 kts 283°
2026-05-07 11:49 49.13754 -1.51378 38042 ft 480 kts 282°
2026-05-07 11:50 49.15336 -1.61277 38038 ft 480 kts 282°
2026-05-07 11:50 49.16897 -1.71142 38050 ft 480 kts 282°
2026-05-07 11:51 49.18457 -1.81066 38049 ft 480 kts 282°
2026-05-07 11:51 49.20012 -1.91013 38044 ft 480 kts 282°
2026-05-07 11:52 49.21549 -2.00903 38049 ft 480 kts 282°
2026-05-07 11:52 49.23123 -2.10841 38049 ft 480 kts 283°
2026-05-07 11:53 49.24846 -2.20746 38048 ft 481 kts 284°
2026-05-07 11:53 49.26575 -2.30640 38050 ft 481 kts 283°
2026-05-07 11:54 49.28263 -2.40500 38047 ft 481 kts 283°
2026-05-07 11:54 49.29940 -2.50430 38043 ft 481 kts 283°
2026-05-07 11:55 49.31595 -2.60303 38043 ft 481 kts 283°
2026-05-07 11:55 49.33251 -2.70234 38046 ft 481 kts 283°
2026-05-07 11:56 49.34902 -2.80191 38043 ft 481 kts 283°
2026-05-07 11:56 49.36268 -2.88468 38041 ft 481 kts 283°
2026-05-07 11:57 49.38167 -3.00046 38039 ft 481 kts 282°
2026-05-07 11:57 49.39521 -3.08350 38037 ft 481 kts 282°
2026-05-07 11:58 49.41138 -3.18323 38027 ft 481 kts 282°
2026-05-07 11:58 49.42740 -3.28257 38033 ft 481 kts 282°
2026-05-07 11:59 49.44344 -3.38266 38036 ft 481 kts 282°
2026-05-07 11:59 49.45929 -3.48217 38035 ft 482 kts 282°
2026-05-07 12:00 49.47513 -3.58227 38034 ft 482 kts 282°
2026-05-07 12:00 49.49090 -3.68252 38034 ft 482 kts 282°
2026-05-07 12:01 49.50662 -3.78304 38027 ft 482 kts 282°
2026-05-07 12:01 49.52224 -3.88350 38027 ft 483 kts 282°
2026-05-07 12:02 49.53769 -3.98358 38028 ft 483 kts 282°
2026-05-07 12:02 49.55318 -4.08443 38025 ft 483 kts 282°
2026-05-07 12:03 49.56856 -4.18526 38026 ft 483 kts 282°
2026-05-07 12:03 49.58384 -4.28586 38026 ft 484 kts 282°
2026-05-07 12:04 49.60716 -4.38330 38029 ft 486 kts 293°
2026-05-07 12:04 49.63594 -4.47721 38027 ft 487 kts 294°
2026-05-07 12:05 49.66550 -4.57131 38031 ft 487 kts 294°
2026-05-07 12:05 49.69497 -4.66577 38028 ft 487 kts 294°
2026-05-07 12:06 49.72419 -4.76030 38025 ft 487 kts 294°
2026-05-07 12:06 49.75310 -4.85437 38027 ft 487 kts 294°
2026-05-07 12:07 49.78220 -4.94943 38029 ft 488 kts 294°
2026-05-07 12:07 49.81117 -5.04441 38024 ft 488 kts 294°
2026-05-07 12:08 49.84013 -5.13969 38024 ft 488 kts 294°
2026-05-07 12:08 49.86877 -5.23432 38023 ft 488 kts 294°
2026-05-07 12:09 49.89756 -5.32983 38019 ft 488 kts 293°
2026-05-07 12:09 49.92631 -5.42553 38022 ft 488 kts 293°
2026-05-07 12:10 49.95479 -5.52074 38022 ft 488 kts 293°
2026-05-07 12:10 49.98334 -5.61655 38021 ft 489 kts 293°
2026-05-07 12:11 50.01178 -5.71235 38020 ft 489 kts 293°
2026-05-07 12:11 50.04023 -5.80858 38021 ft 489 kts 293°
2026-05-07 12:12 50.06855 -5.90475 38028 ft 489 kts 293°
2026-05-07 12:12 50.09665 -6.00056 38025 ft 489 kts 293°
2026-05-07 12:13 50.12481 -6.09695 38025 ft 488 kts 292°
2026-05-07 12:13 50.15293 -6.19358 38025 ft 488 kts 292°
2026-05-07 12:14 50.18073 -6.28952 38012 ft 488 kts 292°
2026-05-07 12:14 50.20864 -6.38622 38033 ft 488 kts 292°
2026-05-07 12:15 50.23651 -6.48318 38039 ft 488 kts 292°
2026-05-07 12:15 50.26411 -6.57961 38016 ft 488 kts 292°
2026-05-07 12:16 50.29182 -6.67678 38013 ft 488 kts 292°
2026-05-07 12:16 50.31943 -6.77403 38036 ft 488 kts 292°
2026-05-07 12:17 50.34678 -6.87075 38021 ft 488 kts 292°
2026-05-07 12:17 50.37423 -6.96821 38023 ft 488 kts 292°
2026-05-07 12:18 50.40155 -7.06561 38019 ft 488 kts 292°
2026-05-07 12:18 50.42882 -7.16326 38024 ft 488 kts 292°
2026-05-07 12:19 50.45597 -7.26084 38015 ft 488 kts 292°
2026-05-07 12:19 50.48289 -7.35802 38019 ft 488 kts 292°
2026-05-07 12:20 50.50991 -7.45594 38017 ft 487 kts 291°
2026-05-07 12:20 50.53679 -7.55378 38018 ft 487 kts 291°
2026-05-07 12:21 50.56340 -7.65104 38016 ft 487 kts 291°
2026-05-07 12:21 50.59013 -7.74919 38015 ft 487 kts 291°
2026-05-07 12:22 50.61660 -7.84675 38013 ft 487 kts 291°
2026-05-07 12:22 50.64310 -7.94490 38016 ft 487 kts 291°
2026-05-07 12:23 50.66920 -8.04352 38012 ft 486 kts 289°
2026-05-07 12:23 50.69090 -8.14447 38014 ft 485 kts 286°
2026-05-07 12:24 50.71127 -8.24539 38011 ft 485 kts 286°
2026-05-07 12:24 50.73222 -8.34623 38007 ft 485 kts 287°
2026-05-07 12:25 50.75361 -8.44725 38006 ft 485 kts 287°
2026-05-07 12:25 50.77506 -8.54845 38007 ft 485 kts 287°
2026-05-07 12:26 50.79638 -8.64973 38005 ft 485 kts 287°
2026-05-07 12:26 50.81745 -8.75044 38010 ft 485 kts 287°
2026-05-07 12:27 50.83854 -8.85179 38003 ft 484 kts 287°
2026-05-07 12:27 50.85957 -8.95333 38001 ft 484 kts 287°
2026-05-07 12:28 50.88032 -9.05412 38002 ft 484 kts 287°
2026-05-07 12:28 50.90114 -9.15565 38003 ft 484 kts 286°
2026-05-07 12:29 50.92189 -9.25741 37991 ft 484 kts 286°
2026-05-07 12:29 50.94254 -9.35924 37994 ft 484 kts 286°
2026-05-07 12:30 50.96294 -9.46029 37996 ft 484 kts 286°
2026-05-07 12:30 50.98338 -9.56206 37989 ft 484 kts 286°
2026-05-07 12:31 51.00375 -9.66407 37988 ft 484 kts 286°
2026-05-07 12:31 51.02386 -9.76528 37997 ft 483 kts 286°
2026-05-07 12:32 51.04403 -9.86735 37989 ft 483 kts 285°
2026-05-07 12:32 51.06400 -9.96893 37989 ft 483 kts 285°
2026-05-07 12:33 51.09389 -10.12195 37993 ft 482 kts 285°
2026-05-07 12:33 51.11357 -10.22341 37988 ft 482 kts 285°
2026-05-07 12:34 51.13327 -10.32553 37989 ft 481 kts 285°
2026-05-07 12:34 51.15284 -10.42746 37987 ft 481 kts 285°
2026-05-07 12:35 51.17220 -10.52887 37984 ft 480 kts 285°
2026-05-07 12:35 51.19158 -10.63095 37982 ft 480 kts 285°
2026-05-07 12:36 51.21073 -10.73232 37979 ft 479 kts 285°
2026-05-07 12:36 51.23098 -10.83369 37978 ft 479 kts 287°
2026-05-07 12:37 51.25214 -10.93474 37979 ft 479 kts 287°
2026-05-07 12:37 51.27305 -11.03584 37978 ft 478 kts 286°
2026-05-07 12:38 51.29347 -11.13618 37975 ft 478 kts 286°
2026-05-07 12:38 51.31388 -11.23735 37977 ft 477 kts 286°
2026-05-07 12:39 51.33416 -11.33844 37978 ft 477 kts 286°
2026-05-07 12:39 51.35423 -11.43893 37972 ft 476 kts 286°
2026-05-07 12:40 51.37438 -11.54030 37978 ft 476 kts 286°
2026-05-07 12:40 51.39426 -11.64085 37976 ft 476 kts 285°
2026-05-07 12:41 51.41414 -11.74192 37972 ft 475 kts 285°
2026-05-07 12:41 51.43391 -11.84299 37970 ft 475 kts 285°
2026-05-07 12:42 51.45349 -11.94357 37967 ft 475 kts 285°
2026-05-07 12:42 51.47306 -12.04466 37972 ft 474 kts 285°
2026-05-07 12:43 51.49257 -12.14592 37966 ft 474 kts 285°
2026-05-07 12:43 51.51193 -12.24702 37966 ft 473 kts 285°
2026-05-07 12:44 51.53110 -12.34764 37965 ft 473 kts 285°
2026-05-07 12:44 51.55029 -12.44892 37966 ft 473 kts 285°
2026-05-07 12:45 51.56936 -12.55005 37963 ft 472 kts 285°
2026-05-07 12:45 51.58823 -12.65071 37964 ft 472 kts 285°
2026-05-07 12:46 51.60714 -12.75210 37962 ft 472 kts 285°
2026-05-07 12:46 51.62582 -12.85287 37964 ft 472 kts 285°
2026-05-07 12:47 51.64451 -12.95419 37964 ft 472 kts 285°
2026-05-07 12:47 51.66314 -13.05575 37963 ft 472 kts 284°
2026-05-07 12:48 51.68154 -13.15662 37961 ft 471 kts 284°
2026-05-07 12:48 51.69995 -13.25808 37960 ft 471 kts 284°
2026-05-07 12:49 51.71519 -13.34252 37961 ft 471 kts 284°
2026-05-07 12:49 51.73348 -13.44437 37961 ft 471 kts 284°
2026-05-07 12:50 51.75149 -13.54524 37961 ft 471 kts 284°
2026-05-07 12:50 51.76956 -13.64699 37964 ft 470 kts 284°
2026-05-07 12:51 51.78749 -13.74853 37961 ft 470 kts 284°
2026-05-07 12:51 51.80530 -13.84998 37961 ft 469 kts 284°
2026-05-07 12:52 51.82302 -13.95151 37958 ft 468 kts 284°
2026-05-07 12:52 51.84045 -14.05192 37958 ft 467 kts 284°
2026-05-07 12:53 51.85793 -14.15324 37966 ft 466 kts 284°
2026-05-07 12:53 51.87531 -14.25447 37968 ft 466 kts 284°
2026-05-07 12:54 51.89246 -14.35500 37963 ft 465 kts 284°
2026-05-07 12:54 51.90960 -14.45608 37965 ft 465 kts 284°
2026-05-07 12:55 51.92669 -14.55741 37961 ft 465 kts 283°
2026-05-07 12:55 51.94357 -14.65815 37960 ft 465 kts 283°
2026-05-07 12:56 51.96049 -14.75962 37971 ft 465 kts 283°
2026-05-07 12:56 51.97728 -14.86101 37979 ft 465 kts 283°
2026-05-07 12:57 51.99399 -14.96247 37960 ft 465 kts 283°
2026-05-07 12:57 52.01408 -15.06195 37964 ft 466 kts 288°
2026-05-07 12:58 52.03622 -15.16107 37972 ft 467 kts 288°
2026-05-07 12:58 52.05856 -15.26034 37971 ft 467 kts 288°
2026-05-07 12:59 52.08063 -15.35911 37970 ft 467 kts 288°
2026-05-07 12:59 52.10269 -15.45855 37973 ft 467 kts 288°
2026-05-07 13:00 52.12473 -15.55846 37974 ft 468 kts 288°
2026-05-07 13:00 52.14648 -15.65755 37972 ft 468 kts 288°
2026-05-07 13:01 52.16834 -15.75762 37977 ft 468 kts 288°
2026-05-07 13:01 52.19003 -15.85737 37980 ft 469 kts 288°
2026-05-07 13:02 52.21172 -15.95764 37978 ft 469 kts 288°
2026-05-07 13:02 52.23339 -16.05827 37983 ft 469 kts 287°
2026-05-07 13:03 52.25484 -16.15840 37981 ft 470 kts 287°
2026-05-07 13:03 52.27637 -16.25939 37982 ft 470 kts 287°
2026-05-07 13:04 52.29783 -16.36057 37986 ft 471 kts 287°
2026-05-07 13:04 52.31919 -16.46174 37988 ft 471 kts 287°
2026-05-07 13:05 52.34040 -16.56272 37988 ft 471 kts 287°
2026-05-07 13:05 52.36160 -16.66419 37986 ft 471 kts 287°
2026-05-07 13:06 52.38262 -16.76528 37988 ft 471 kts 287°
2026-05-07 13:06 52.40370 -16.86717 37992 ft 471 kts 287°
2026-05-07 13:07 52.42468 -16.96914 37994 ft 471 kts 287°
2026-05-07 13:07 52.44550 -17.07088 37997 ft 471 kts 287°
2026-05-07 13:08 52.46621 -17.17255 37996 ft 471 kts 287°
2026-05-07 13:08 52.48694 -17.27480 37994 ft 471 kts 287°
2026-05-07 13:09 52.50739 -17.37627 37999 ft 471 kts 287°
2026-05-07 13:09 52.52792 -17.47866 37998 ft 471 kts 286°
2026-05-07 13:10 52.54836 -17.58113 38002 ft 471 kts 286°
2026-05-07 13:10 52.56854 -17.68282 38001 ft 471 kts 286°
2026-05-07 13:11 52.58882 -17.78560 38003 ft 471 kts 286°
2026-05-07 13:11 52.60885 -17.88759 38008 ft 471 kts 286°
2026-05-07 13:12 52.62892 -17.99032 38011 ft 470 kts 286°
2026-05-07 13:12 52.64885 -18.09295 38006 ft 470 kts 286°
2026-05-07 13:13 52.66863 -18.19528 38009 ft 470 kts 286°
2026-05-07 13:13 52.68839 -18.29807 38006 ft 470 kts 286°
2026-05-07 13:14 52.70796 -18.40046 38012 ft 470 kts 286°
2026-05-07 13:14 52.72757 -18.50357 38016 ft 470 kts 286°
2026-05-07 13:15 52.74709 -18.60678 38017 ft 470 kts 286°
2026-05-07 13:15 52.76639 -18.70939 38017 ft 470 kts 286°
2026-05-07 13:16 52.78572 -18.81278 38021 ft 470 kts 286°
2026-05-07 13:16 52.80484 -18.91555 38020 ft 470 kts 286°
2026-05-07 13:17 52.82396 -19.01893 38020 ft 470 kts 286°
2026-05-07 13:17 52.84303 -19.12259 38021 ft 470 kts 286°
2026-05-07 13:18 52.86188 -19.22565 38030 ft 470 kts 285°
2026-05-07 13:18 52.88076 -19.32949 38028 ft 470 kts 285°
2026-05-07 13:19 52.89956 -19.43342 38031 ft 470 kts 285°
2026-05-07 13:19 52.91815 -19.53674 38033 ft 470 kts 285°
2026-05-07 13:20 52.93676 -19.64087 38036 ft 470 kts 285°
2026-05-07 13:20 52.95528 -19.74508 38034 ft 470 kts 285°
2026-05-07 13:21 52.97357 -19.84852 38036 ft 470 kts 285°
2026-05-07 13:21 52.99189 -19.95293 38039 ft 470 kts 285°
2026-05-07 13:22 53.00254 -20.05977 38043 ft 469 kts 275°
2026-05-07 13:22 53.00745 -20.16738 38043 ft 470 kts 274°
2026-05-07 13:23 53.01159 -20.27588 38050 ft 470 kts 274°
2026-05-07 13:23 53.01567 -20.38427 38049 ft 470 kts 274°
2026-05-07 13:24 53.01977 -20.49216 38048 ft 470 kts 274°
2026-05-07 13:24 53.02384 -20.60084 38049 ft 471 kts 274°
2026-05-07 13:25 53.02782 -20.70959 38056 ft 471 kts 274°
2026-05-07 13:25 53.03166 -20.81750 38054 ft 471 kts 274°
2026-05-07 13:26 53.03544 -20.92636 38056 ft 471 kts 274°
2026-05-07 13:26 53.03909 -21.03457 38060 ft 471 kts 274°
2026-05-07 13:27 53.04266 -21.14355 38058 ft 471 kts 274°
2026-05-07 13:27 53.04614 -21.25259 38064 ft 472 kts 274°
2026-05-07 13:28 53.04950 -21.36094 38064 ft 472 kts 274°
2026-05-07 13:28 53.05279 -21.46987 38070 ft 472 kts 273°
2026-05-07 13:29 53.05597 -21.57902 38070 ft 472 kts 273°
2026-05-07 13:29 53.05903 -21.68749 38070 ft 472 kts 273°
2026-05-07 13:30 53.06202 -21.79673 38070 ft 472 kts 273°
2026-05-07 13:30 53.06491 -21.90583 38074 ft 472 kts 273°
2026-05-07 13:31 53.06769 -22.01514 38076 ft 472 kts 273°
2026-05-07 13:31 53.07035 -22.12356 38080 ft 472 kts 273°
2026-05-07 13:32 53.07295 -22.23311 38081 ft 472 kts 273°
2026-05-07 13:32 53.07542 -22.34182 38086 ft 473 kts 273°
2026-05-07 13:33 53.07781 -22.45132 38090 ft 473 kts 273°
2026-05-07 13:33 53.08010 -22.56068 38089 ft 473 kts 273°
2026-05-07 13:34 53.08333 -22.72437 38094 ft 473 kts 273°
2026-05-07 13:35 53.08538 -22.83404 38092 ft 473 kts 273°
2026-05-07 13:35 53.08732 -22.94360 38095 ft 474 kts 273°
2026-05-07 13:36 53.08916 -23.05320 38098 ft 474 kts 273°
2026-05-07 13:36 53.09089 -23.16249 38100 ft 474 kts 273°
2026-05-07 13:37 53.09252 -23.27220 38105 ft 474 kts 272°
2026-05-07 13:37 53.09406 -23.38141 38105 ft 474 kts 272°
2026-05-07 13:38 53.09550 -23.49123 38105 ft 474 kts 272°
2026-05-07 13:38 53.09662 -23.58261 38106 ft 475 kts 272°
2026-05-07 13:39 53.09787 -23.69266 38113 ft 475 kts 272°
2026-05-07 13:39 53.09902 -23.80206 38112 ft 475 kts 272°
2026-05-07 13:40 53.10007 -23.91216 38117 ft 475 kts 272°
2026-05-07 13:40 53.10103 -24.02228 38120 ft 475 kts 272°
2026-05-07 13:41 53.10188 -24.13237 38369 ft 475 kts 272°
2026-05-07 13:41 53.10226 -24.18670 38623 ft 475 kts 272°
2026-05-07 13:41 53.10262 -24.24172 38828 ft 475 kts 272°
2026-05-07 13:41 53.10296 -24.29676 38988 ft 475 kts 272°
2026-05-07 13:42 53.10328 -24.35180 39148 ft 475 kts 272°
2026-05-07 13:42 53.10356 -24.40611 39305 ft 475 kts 272°
2026-05-07 13:42 53.10382 -24.46116 39455 ft 475 kts 272°
2026-05-07 13:42 53.10406 -24.51602 39611 ft 475 kts 272°
2026-05-07 13:43 53.10427 -24.57105 39752 ft 475 kts 272°
2026-05-07 13:43 53.10445 -24.62611 39882 ft 475 kts 272°
2026-05-07 13:43 53.10461 -24.68116 40040 ft 475 kts 272°
2026-05-07 13:44 53.10486 -24.79079 40141 ft 477 kts 272°
2026-05-07 13:44 53.10500 -24.90110 40132 ft 476 kts 272°
2026-05-07 13:45 53.10503 -25.01153 40139 ft 476 kts 272°
2026-05-07 13:45 53.10497 -25.12178 40142 ft 476 kts 272°
2026-05-07 13:46 53.10481 -25.23147 40141 ft 476 kts 272°
2026-05-07 13:46 53.10454 -25.34192 40147 ft 476 kts 272°
2026-05-07 13:47 53.10418 -25.45165 40150 ft 476 kts 272°
2026-05-07 13:47 53.10371 -25.56214 40153 ft 476 kts 272°
2026-05-07 13:48 53.10314 -25.67246 40156 ft 477 kts 272°
2026-05-07 13:48 53.10246 -25.78279 40155 ft 477 kts 272°
2026-05-07 13:49 53.10169 -25.89258 40157 ft 477 kts 272°
2026-05-07 13:49 53.10081 -26.00292 40163 ft 477 kts 272°
2026-05-07 13:50 53.09983 -26.11343 40163 ft 477 kts 272°
2026-05-07 13:50 53.09875 -26.22375 40165 ft 477 kts 272°
2026-05-07 13:51 53.09758 -26.33350 40168 ft 476 kts 272°
2026-05-07 13:51 53.09630 -26.44394 40170 ft 476 kts 272°
2026-05-07 13:52 53.09492 -26.55362 40170 ft 476 kts 272°
2026-05-07 13:52 53.09342 -26.66398 40174 ft 476 kts 272°
2026-05-07 13:53 53.09184 -26.77417 40178 ft 476 kts 272°
2026-05-07 13:53 53.09016 -26.88382 40180 ft 476 kts 272°
2026-05-07 13:54 53.08837 -26.99383 40180 ft 475 kts 272°
2026-05-07 13:54 53.08648 -27.10346 40184 ft 475 kts 271°
2026-05-07 13:55 53.08450 -27.21335 40187 ft 475 kts 271°
2026-05-07 13:55 53.08240 -27.32335 40191 ft 475 kts 271°
2026-05-07 13:56 53.08023 -27.43238 40190 ft 474 kts 271°
2026-05-07 13:56 53.07793 -27.54223 40193 ft 474 kts 271°
2026-05-07 13:57 53.07555 -27.65128 40196 ft 474 kts 271°
2026-05-07 13:57 53.07307 -27.76084 40199 ft 474 kts 271°
2026-05-07 13:58 53.07047 -27.87054 40202 ft 474 kts 271°
2026-05-07 13:58 53.06779 -27.98002 40204 ft 474 kts 271°
2026-05-07 13:59 53.06502 -28.08871 40207 ft 473 kts 271°
2026-05-07 13:59 53.06213 -28.19827 40204 ft 473 kts 271°
2026-05-07 14:00 53.05914 -28.30775 40211 ft 473 kts 271°
2026-05-07 14:00 53.05607 -28.41644 40212 ft 473 kts 271°
2026-05-07 14:01 53.05289 -28.52564 40222 ft 473 kts 271°
2026-05-07 14:01 53.04960 -28.63498 40219 ft 472 kts 271°
2026-05-07 14:02 53.04624 -28.74352 40224 ft 472 kts 271°
2026-05-07 14:02 53.04276 -28.85252 40221 ft 472 kts 271°
2026-05-07 14:03 53.03918 -28.96162 40231 ft 472 kts 271°
2026-05-07 14:03 53.03553 -29.06996 40229 ft 472 kts 271°
2026-05-07 14:04 53.03176 -29.17878 40227 ft 471 kts 271°
2026-05-07 14:04 53.02789 -29.28754 40237 ft 471 kts 271°
2026-05-07 14:05 53.02392 -29.39631 40244 ft 471 kts 271°
2026-05-07 14:05 53.01988 -29.50430 40244 ft 470 kts 271°
2026-05-07 14:06 53.01573 -29.61275 40244 ft 470 kts 271°
2026-05-07 14:06 53.01147 -29.72127 40244 ft 470 kts 271°
2026-05-07 14:07 53.00714 -29.82895 40249 ft 469 kts 271°
2026-05-07 14:07 53.00270 -29.93720 40253 ft 469 kts 271°
2026-05-07 14:08 53.00208 -30.04417 40246 ft 463 kts 277°
2026-05-07 14:08 53.00603 -30.15081 40251 ft 462 kts 278°
2026-05-07 14:09 53.01048 -30.25739 40254 ft 461 kts 278°
2026-05-07 14:09 53.01481 -30.36391 40259 ft 461 kts 278°
2026-05-07 14:10 53.01891 -30.46947 40254 ft 461 kts 278°
2026-05-07 14:10 53.02291 -30.57585 40270 ft 460 kts 278°
2026-05-07 14:11 53.02681 -30.68215 40264 ft 460 kts 278°
2026-05-07 14:11 53.03059 -30.78765 40266 ft 459 kts 278°
2026-05-07 14:12 53.03428 -30.89342 40268 ft 459 kts 278°
2026-05-07 14:12 53.03790 -30.99953 40270 ft 459 kts 278°
2026-05-07 14:13 53.04140 -31.10495 40272 ft 459 kts 277°
2026-05-07 14:13 53.04482 -31.21090 40275 ft 459 kts 277°
2026-05-07 14:14 53.04814 -31.31687 40272 ft 459 kts 277°
2026-05-07 14:14 53.05138 -31.42304 40276 ft 459 kts 277°
2026-05-07 14:15 53.05451 -31.52905 40276 ft 459 kts 277°
2026-05-07 14:15 53.05753 -31.63456 40273 ft 459 kts 277°
2026-05-07 14:16 53.06048 -31.74082 40279 ft 459 kts 277°
2026-05-07 14:16 53.06333 -31.84642 40282 ft 459 kts 277°
2026-05-07 14:17 53.06610 -31.95279 40286 ft 460 kts 277°
2026-05-07 14:17 53.06877 -32.05901 40287 ft 460 kts 277°
2026-05-07 14:18 53.07134 -32.16527 40285 ft 460 kts 277°
2026-05-07 14:18 53.07381 -32.27103 40288 ft 460 kts 277°
2026-05-07 14:19 53.07620 -32.37759 40290 ft 460 kts 277°
2026-05-07 14:19 53.07850 -32.48423 40289 ft 461 kts 277°
2026-05-07 14:20 53.08068 -32.59007 40286 ft 461 kts 276°
2026-05-07 14:20 53.08279 -32.69687 40288 ft 461 kts 276°
2026-05-07 14:21 53.08481 -32.80357 40288 ft 461 kts 276°
2026-05-07 14:21 53.08672 -32.90981 40288 ft 462 kts 276°
2026-05-07 14:22 53.08854 -33.01665 40292 ft 462 kts 276°
2026-05-07 14:22 53.09027 -33.12356 40295 ft 462 kts 276°
2026-05-07 14:23 53.09190 -33.23001 40295 ft 462 kts 276°
2026-05-07 14:23 53.09343 -33.33723 40298 ft 463 kts 276°
2026-05-07 14:24 53.09487 -33.44394 40300 ft 463 kts 276°
2026-05-07 14:24 53.09623 -33.55173 40307 ft 463 kts 276°
2026-05-07 14:25 53.09747 -33.65807 40302 ft 462 kts 276°
2026-05-07 14:25 53.09862 -33.76524 40292 ft 462 kts 276°
2026-05-07 14:26 53.09968 -33.87152 40306 ft 461 kts 276°
2026-05-07 14:26 53.10064 -33.97822 40306 ft 461 kts 276°
2026-05-07 14:27 53.10150 -34.08494 40301 ft 460 kts 276°
2026-05-07 14:27 53.10227 -34.19131 40304 ft 459 kts 276°
2026-05-07 14:28 53.10293 -34.29697 40307 ft 458 kts 276°
2026-05-07 14:28 53.10351 -34.40300 40309 ft 458 kts 276°
2026-05-07 14:29 53.10392 -34.49110 40311 ft 457 kts 276°
2026-05-07 14:29 53.10432 -34.59703 40313 ft 456 kts 276°
2026-05-07 14:30 53.10463 -34.70265 40313 ft 456 kts 276°
2026-05-07 14:30 53.10485 -34.80762 40312 ft 455 kts 276°
2026-05-07 14:31 53.10497 -34.91299 40318 ft 455 kts 276°
2026-05-07 14:31 53.10500 -35.01843 40314 ft 454 kts 276°
2026-05-07 14:32 53.10494 -35.12303 40311 ft 454 kts 276°
2026-05-07 14:32 53.10478 -35.22823 40316 ft 453 kts 276°
2026-05-07 14:33 53.10453 -35.33328 40325 ft 453 kts 276°
2026-05-07 14:33 53.10420 -35.43733 40310 ft 452 kts 276°
2026-05-07 14:34 53.10377 -35.54191 40315 ft 451 kts 276°
2026-05-07 14:34 53.10325 -35.64653 40319 ft 451 kts 276°
2026-05-07 14:35 53.10264 -35.75031 40318 ft 450 kts 276°
2026-05-07 14:35 53.10194 -35.85468 40317 ft 450 kts 276°
2026-05-07 14:36 53.10115 -35.95878 40314 ft 449 kts 275°
2026-05-07 14:36 53.10027 -36.06227 40319 ft 449 kts 275°
2026-05-07 14:37 53.09930 -36.16638 40321 ft 449 kts 275°
2026-05-07 14:37 53.09768 -36.32226 40319 ft 448 kts 275°
2026-05-07 14:38 53.09648 -36.42551 40318 ft 448 kts 275°
2026-05-07 14:38 53.09520 -36.52940 40317 ft 448 kts 275°
2026-05-07 14:39 53.09382 -36.63322 40318 ft 448 kts 275°
2026-05-07 14:39 53.09237 -36.73628 40319 ft 447 kts 275°
2026-05-07 14:40 53.09082 -36.83978 40318 ft 447 kts 275°
2026-05-07 14:40 53.08917 -36.94338 40317 ft 447 kts 275°
2026-05-07 14:41 53.08745 -37.04602 40317 ft 446 kts 274°
2026-05-07 14:41 53.08564 -37.14948 40316 ft 447 kts 274°
2026-05-07 14:42 53.08373 -37.25296 40318 ft 447 kts 274°
2026-05-07 14:42 53.08175 -37.35556 40315 ft 447 kts 274°
2026-05-07 14:43 53.07966 -37.45919 40314 ft 447 kts 274°
2026-05-07 14:43 53.07751 -37.56195 40318 ft 447 kts 274°
2026-05-07 14:44 53.07524 -37.66541 40318 ft 447 kts 274°
2026-05-07 14:44 53.07288 -37.76885 40315 ft 447 kts 274°
2026-05-07 14:45 53.07045 -37.87162 40316 ft 447 kts 274°
2026-05-07 14:45 53.06792 -37.97473 40316 ft 447 kts 273°
2026-05-07 14:46 53.06528 -38.07816 40315 ft 447 kts 273°
2026-05-07 14:46 53.06257 -38.18090 40315 ft 447 kts 273°
2026-05-07 14:47 53.05977 -38.28414 40312 ft 447 kts 273°
2026-05-07 14:47 53.05688 -38.38757 40310 ft 447 kts 272°
2026-05-07 14:48 53.05390 -38.49083 40316 ft 447 kts 272°
2026-05-07 14:48 53.05085 -38.59357 40311 ft 447 kts 272°
2026-05-07 14:49 53.04769 -38.69680 40307 ft 447 kts 272°
2026-05-07 14:49 53.04444 -38.80019 40311 ft 447 kts 272°
2026-05-07 14:50 53.04112 -38.90286 40305 ft 447 kts 272°
2026-05-07 14:50 53.03769 -39.00603 40305 ft 447 kts 272°
2026-05-07 14:51 53.03417 -39.10932 40299 ft 447 kts 271°
2026-05-07 14:51 53.03058 -39.21194 40300 ft 447 kts 271°
2026-05-07 14:52 53.02688 -39.31524 40298 ft 447 kts 271°
2026-05-07 14:52 53.02309 -39.41851 40296 ft 447 kts 271°
2026-05-07 14:53 53.01924 -39.52107 40294 ft 447 kts 271°
2026-05-07 14:53 53.01528 -39.62412 40295 ft 447 kts 271°
2026-05-07 14:54 53.01123 -39.72730 40295 ft 447 kts 270°
2026-05-07 14:54 53.00711 -39.82977 40294 ft 447 kts 270°
2026-05-07 14:55 53.00288 -39.93290 40293 ft 447 kts 270°
2026-05-07 14:55 52.99853 -40.03530 40292 ft 447 kts 269°
2026-05-07 14:56 52.99278 -40.13817 40292 ft 447 kts 268°
2026-05-07 14:56 52.98645 -40.24113 40290 ft 447 kts 268°
2026-05-07 14:57 52.98024 -40.34387 40287 ft 447 kts 268°
2026-05-07 14:57 52.97413 -40.44606 40290 ft 447 kts 268°
2026-05-07 14:58 52.96794 -40.54873 40279 ft 447 kts 268°
2026-05-07 14:58 52.96164 -40.65155 40285 ft 447 kts 268°
2026-05-07 14:59 52.95529 -40.75369 40283 ft 447 kts 268°
2026-05-07 14:59 52.94880 -40.85648 40284 ft 447 kts 268°
2026-05-07 15:00 52.94224 -40.95909 40274 ft 447 kts 268°
2026-05-07 15:00 52.93563 -41.06098 40273 ft 447 kts 267°
2026-05-07 15:01 52.92888 -41.16373 40271 ft 448 kts 267°
2026-05-07 15:01 52.92205 -41.26633 40268 ft 448 kts 267°
2026-05-07 15:02 52.91516 -41.36843 40267 ft 448 kts 267°
2026-05-07 15:02 52.90813 -41.47125 40267 ft 448 kts 267°
2026-05-07 15:03 52.90101 -41.57409 40263 ft 448 kts 266°
2026-05-07 15:03 52.89381 -41.67677 40260 ft 449 kts 266°
2026-05-07 15:04 52.88655 -41.77893 40261 ft 449 kts 266°
2026-05-07 15:04 52.87916 -41.88176 40260 ft 449 kts 266°
2026-05-07 15:05 52.87173 -41.98391 40257 ft 449 kts 266°
2026-05-07 15:05 52.86415 -42.08678 40253 ft 449 kts 266°
2026-05-07 15:06 52.85647 -42.18968 40251 ft 450 kts 266°
2026-05-07 15:06 52.84877 -42.29176 40251 ft 450 kts 266°
2026-05-07 15:07 52.84091 -42.39470 40251 ft 450 kts 265°
2026-05-07 15:07 52.83297 -42.49748 40248 ft 450 kts 265°
2026-05-07 15:08 52.82499 -42.59975 40247 ft 451 kts 265°
2026-05-07 15:08 52.81685 -42.70272 40243 ft 451 kts 265°
2026-05-07 15:09 52.80863 -42.80552 40242 ft 451 kts 265°
2026-05-07 15:09 52.80036 -42.90780 40243 ft 451 kts 265°
2026-05-07 15:10 52.79196 -43.01074 40241 ft 451 kts 265°
2026-05-07 15:10 52.78351 -43.11315 40237 ft 451 kts 264°
2026-05-07 15:11 52.77492 -43.21605 40237 ft 451 kts 264°
2026-05-07 15:11 52.76623 -43.31891 40236 ft 451 kts 264°
2026-05-07 15:12 52.75752 -43.42103 40237 ft 451 kts 264°
2026-05-07 15:12 52.74866 -43.52379 40239 ft 451 kts 264°
2026-05-07 15:13 52.73979 -43.62580 40235 ft 451 kts 264°
2026-05-07 15:13 52.73077 -43.72826 40234 ft 451 kts 264°
2026-05-07 15:14 52.72166 -43.83082 40234 ft 451 kts 263°
2026-05-07 15:14 52.71253 -43.93247 40234 ft 451 kts 263°
2026-05-07 15:15 52.70324 -44.03488 40231 ft 450 kts 263°
2026-05-07 15:15 52.69388 -44.13721 40226 ft 450 kts 263°
2026-05-07 15:16 52.68449 -44.23876 40222 ft 450 kts 263°
2026-05-07 15:16 52.67495 -44.34090 40224 ft 450 kts 263°
2026-05-07 15:17 52.66540 -44.44228 40221 ft 450 kts 263°
2026-05-07 15:17 52.65571 -44.54409 40223 ft 450 kts 262°
2026-05-07 15:18 52.64592 -44.64601 40223 ft 450 kts 262°
2026-05-07 15:18 52.63606 -44.74768 40219 ft 449 kts 262°
2026-05-07 15:19 52.62617 -44.84879 40219 ft 449 kts 262°
2026-05-07 15:19 52.61613 -44.95050 40216 ft 449 kts 262°
2026-05-07 15:20 52.60607 -45.05144 40217 ft 449 kts 262°
2026-05-07 15:20 52.59753 -45.13645 40213 ft 449 kts 262°
2026-05-07 15:21 52.58732 -45.23726 40213 ft 449 kts 261°
2026-05-07 15:21 52.57697 -45.33850 40207 ft 449 kts 261°
2026-05-07 15:22 52.56654 -45.43966 40212 ft 448 kts 261°
2026-05-07 15:22 52.55609 -45.54022 40208 ft 448 kts 261°
2026-05-07 15:23 52.54548 -45.64135 40209 ft 448 kts 261°
2026-05-07 15:23 52.53486 -45.74171 40211 ft 448 kts 261°
2026-05-07 15:24 52.52411 -45.84245 40213 ft 447 kts 261°
2026-05-07 15:24 52.51327 -45.94320 40200 ft 447 kts 260°
2026-05-07 15:25 52.50243 -46.04312 40210 ft 446 kts 260°
2026-05-07 15:25 52.49144 -46.14353 40207 ft 446 kts 260°
2026-05-07 15:26 52.48044 -46.24328 40198 ft 445 kts 260°
2026-05-07 15:26 52.46931 -46.34337 40203 ft 445 kts 260°
2026-05-07 15:27 52.45819 -46.44263 40200 ft 444 kts 260°
2026-05-07 15:27 52.44693 -46.54226 40195 ft 444 kts 259°
2026-05-07 15:28 52.43558 -46.64195 40202 ft 444 kts 259°
2026-05-07 15:28 52.42423 -46.74084 40203 ft 443 kts 259°
2026-05-07 15:29 52.41275 -46.84009 40200 ft 443 kts 259°
2026-05-07 15:29 52.40117 -46.93938 40195 ft 443 kts 259°
2026-05-07 15:30 52.38955 -47.03834 40195 ft 442 kts 259°
2026-05-07 15:30 52.37788 -47.13689 40192 ft 442 kts 259°
2026-05-07 15:31 52.36608 -47.23585 40188 ft 442 kts 258°
2026-05-07 15:31 52.35430 -47.33389 40193 ft 442 kts 258°
2026-05-07 15:32 52.34235 -47.43264 40186 ft 442 kts 258°
2026-05-07 15:32 52.33034 -47.53114 40184 ft 441 kts 258°
2026-05-07 15:33 52.31831 -47.62903 40186 ft 441 kts 258°
2026-05-07 15:33 52.30614 -47.72745 40182 ft 441 kts 258°
2026-05-07 15:34 52.29397 -47.82509 40178 ft 440 kts 257°
2026-05-07 15:34 52.28165 -47.92325 40177 ft 440 kts 257°
2026-05-07 15:35 52.26925 -48.02128 40171 ft 440 kts 257°
2026-05-07 15:35 52.25689 -48.11836 40173 ft 439 kts 257°
2026-05-07 15:36 52.24436 -48.21610 40173 ft 439 kts 257°
2026-05-07 15:36 52.23176 -48.31369 40171 ft 438 kts 257°
2026-05-07 15:37 52.21919 -48.41032 40169 ft 438 kts 257°
2026-05-07 15:37 52.20646 -48.50758 40168 ft 437 kts 256°
2026-05-07 15:38 52.19373 -48.60421 40169 ft 437 kts 256°
2026-05-07 15:38 52.18086 -48.70115 40164 ft 436 kts 256°
2026-05-07 15:39 52.16802 -48.79730 40164 ft 436 kts 256°
2026-05-07 15:39 52.15502 -48.89394 40162 ft 436 kts 256°
2026-05-07 15:40 52.14198 -48.99025 40165 ft 435 kts 256°
2026-05-07 15:40 52.12886 -49.08659 40161 ft 435 kts 255°
2026-05-07 15:41 52.11575 -49.18215 40160 ft 434 kts 255°
2026-05-07 15:41 52.10249 -49.27821 40160 ft 434 kts 255°
2026-05-07 15:42 52.08918 -49.37396 40159 ft 434 kts 255°
2026-05-07 15:42 52.07588 -49.46910 40159 ft 433 kts 255°
2026-05-07 15:43 52.06242 -49.56472 40154 ft 433 kts 255°
2026-05-07 15:43 52.04890 -49.66022 40154 ft 433 kts 255°
2026-05-07 15:44 52.03540 -49.75497 40154 ft 432 kts 254°
2026-05-07 15:44 52.02174 -49.85023 40155 ft 432 kts 254°
2026-05-07 15:45 52.00804 -49.94521 40155 ft 432 kts 254°
2026-05-07 15:45 51.99089 -50.03775 40153 ft 429 kts 248°
2026-05-07 15:46 51.95861 -50.17346 40149 ft 429 kts 246°
2026-05-07 15:47 51.93680 -50.26291 40148 ft 428 kts 246°
2026-05-07 15:47 51.91487 -50.35288 40147 ft 428 kts 246°
2026-05-07 15:48 51.89298 -50.44260 40145 ft 428 kts 246°
2026-05-07 15:48 51.87117 -50.53172 40138 ft 428 kts 246°
2026-05-07 15:49 51.84919 -50.62114 40143 ft 427 kts 246°
2026-05-07 15:49 51.82712 -50.71055 40140 ft 427 kts 245°
2026-05-07 15:50 51.80499 -50.79981 40137 ft 427 kts 245°
2026-05-07 15:50 51.78295 -50.88836 40130 ft 427 kts 245°
2026-05-07 15:51 51.76071 -50.97738 40130 ft 426 kts 245°
2026-05-07 15:51 51.73855 -51.06569 40128 ft 426 kts 245°
2026-05-07 15:52 51.71618 -51.15449 40129 ft 426 kts 245°
2026-05-07 15:52 51.69379 -51.24303 40125 ft 426 kts 245°
2026-05-07 15:53 51.67063 -51.33105 40125 ft 426 kts 243°
2026-05-07 15:53 51.64128 -51.41216 40121 ft 420 kts 224°
2026-05-07 15:53 51.61800 -51.44013 40120 ft 419 kts 208°
2026-05-07 15:54 51.59125 -51.45921 40118 ft 421 kts 203°
2026-05-07 15:54 51.53758 -51.49768 40117 ft 421 kts 212°
2026-05-07 15:55 51.49223 -51.55578 40116 ft 421 kts 227°
2026-05-07 15:55 51.45939 -51.63385 40114 ft 425 kts 241°
2026-05-07 15:56 51.43502 -51.72071 40113 ft 427 kts 244°
2026-05-07 15:56 51.41200 -51.80796 40110 ft 428 kts 244°
2026-05-07 15:57 51.38843 -51.89563 40108 ft 428 kts 243°
2026-05-07 15:57 51.36447 -51.98299 40106 ft 428 kts 243°
2026-05-07 15:58 51.34054 -52.06949 40099 ft 428 kts 243°
2026-05-07 15:58 51.31633 -52.15666 40095 ft 428 kts 243°
2026-05-07 15:59 51.29208 -52.24376 40091 ft 428 kts 243°
2026-05-07 15:59 51.26792 -52.33022 40089 ft 428 kts 242°
2026-05-07 16:00 51.24353 -52.41717 40090 ft 428 kts 242°
2026-05-07 16:00 51.21924 -52.50346 40080 ft 428 kts 242°
2026-05-07 16:01 51.19473 -52.59023 40077 ft 428 kts 242°
2026-05-07 16:01 51.17012 -52.67697 40076 ft 429 kts 242°
2026-05-07 16:02 51.14564 -52.76301 40067 ft 429 kts 242°
2026-05-07 16:02 51.12081 -52.84991 40064 ft 430 kts 242°
2026-05-07 16:03 51.09610 -52.93609 40064 ft 430 kts 242°
2026-05-07 16:03 51.07119 -53.02267 40066 ft 430 kts 242°
2026-05-07 16:04 51.04614 -53.10938 40061 ft 431 kts 242°
2026-05-07 16:04 51.02117 -53.19546 40046 ft 431 kts 242°
2026-05-07 16:05 50.99599 -53.28205 40044 ft 431 kts 241°
2026-05-07 16:05 50.97073 -53.36857 40046 ft 431 kts 241°
2026-05-07 16:06 50.94556 -53.45448 40039 ft 431 kts 242°
2026-05-07 16:06 50.92020 -53.54074 40030 ft 431 kts 241°
2026-05-07 16:07 50.89472 -53.62705 40031 ft 431 kts 241°
2026-05-07 16:07 50.86936 -53.71269 40022 ft 431 kts 241°
2026-05-07 16:08 50.84381 -53.79863 40019 ft 431 kts 241°
2026-05-07 16:08 50.81816 -53.88462 40015 ft 431 kts 241°
2026-05-07 16:09 50.79262 -53.96994 40013 ft 431 kts 241°
2026-05-07 16:09 50.76684 -54.05573 40011 ft 431 kts 241°
2026-05-07 16:10 50.74117 -54.14087 40000 ft 431 kts 241°
2026-05-07 16:10 50.71526 -54.22650 39998 ft 431 kts 241°
2026-05-07 16:11 50.68947 -54.31146 39997 ft 431 kts 241°
2026-05-07 16:11 50.66348 -54.39676 40000 ft 431 kts 241°
2026-05-07 16:12 50.64182 -54.46763 39982 ft 431 kts 241°
2026-05-07 16:12 50.61569 -54.55285 39987 ft 431 kts 241°
2026-05-07 16:13 50.58954 -54.63782 39978 ft 431 kts 241°
2026-05-07 16:13 50.56347 -54.72224 39980 ft 431 kts 241°
2026-05-07 16:14 50.53722 -54.80698 39974 ft 431 kts 241°
2026-05-07 16:14 50.51099 -54.89133 39969 ft 431 kts 241°
2026-05-07 16:15 50.48463 -54.97582 39957 ft 431 kts 241°
2026-05-07 16:15 50.45811 -55.06052 39955 ft 431 kts 241°
2026-05-07 16:16 50.43176 -55.14442 39952 ft 431 kts 241°
2026-05-07 16:16 50.40517 -55.22878 39954 ft 431 kts 241°
2026-05-07 16:17 50.37857 -55.31290 39974 ft 430 kts 241°
2026-05-07 16:17 50.35204 -55.39649 39961 ft 430 kts 241°
2026-05-07 16:18 50.32533 -55.48039 39955 ft 430 kts 241°
2026-05-07 16:18 50.29851 -55.56433 39952 ft 430 kts 241°
2026-05-07 16:19 50.27181 -55.64761 39949 ft 430 kts 241°
2026-05-07 16:19 50.24491 -55.73121 39947 ft 430 kts 241°
2026-05-07 16:20 50.21805 -55.81444 39948 ft 430 kts 240°
2026-05-07 16:20 50.19100 -55.89798 39943 ft 430 kts 240°
2026-05-07 16:21 50.16387 -55.98148 39940 ft 431 kts 240°
2026-05-07 16:21 50.13684 -56.06436 39937 ft 431 kts 240°
2026-05-07 16:22 50.10955 -56.14778 39926 ft 431 kts 240°
2026-05-07 16:22 50.08218 -56.23118 39930 ft 432 kts 240°
2026-05-07 16:23 50.05496 -56.31385 39926 ft 432 kts 240°
2026-05-07 16:23 50.02739 -56.39731 39929 ft 432 kts 240°
2026-05-07 16:24 49.99978 -56.48062 39921 ft 433 kts 240°
2026-05-07 16:24 49.97231 -56.56321 39923 ft 433 kts 240°
2026-05-07 16:25 49.94453 -56.64648 39922 ft 434 kts 240°
2026-05-07 16:25 49.91672 -56.72957 39921 ft 434 kts 240°
2026-05-07 16:26 49.88897 -56.81221 39909 ft 434 kts 240°
2026-05-07 16:26 49.86096 -56.89531 39911 ft 434 kts 240°
2026-05-07 16:27 49.83309 -56.97776 39903 ft 434 kts 240°
2026-05-07 16:27 49.80497 -57.06066 39902 ft 434 kts 240°
2026-05-07 16:28 49.77681 -57.14344 39896 ft 434 kts 240°
2026-05-07 16:28 49.74865 -57.22595 39895 ft 433 kts 240°
2026-05-07 16:29 49.72052 -57.30807 39886 ft 433 kts 240°
2026-05-07 16:29 49.69240 -57.38994 39877 ft 433 kts 240°
2026-05-07 16:30 49.66409 -57.47208 39869 ft 433 kts 240°
2026-05-07 16:30 49.63568 -57.55423 39858 ft 433 kts 240°
2026-05-07 16:31 49.60727 -57.63611 39844 ft 433 kts 241°
2026-05-07 16:31 49.57897 -57.71744 39837 ft 432 kts 240°
2026-05-07 16:32 49.55048 -57.79906 39828 ft 432 kts 241°
2026-05-07 16:32 49.52204 -57.88028 39820 ft 432 kts 240°
2026-05-07 16:33 49.49345 -57.96163 39807 ft 432 kts 241°
2026-05-07 16:33 49.46479 -58.04297 39808 ft 432 kts 241°
2026-05-07 16:34 49.43612 -58.12406 39793 ft 431 kts 241°
2026-05-07 16:34 49.40736 -58.20515 39792 ft 431 kts 241°
2026-05-07 16:35 49.37878 -58.28548 39782 ft 431 kts 240°
2026-05-07 16:35 49.34990 -58.36638 39779 ft 431 kts 240°
2026-05-07 16:36 49.32118 -58.44662 39771 ft 431 kts 240°
2026-05-07 16:36 49.29221 -58.52728 39769 ft 431 kts 240°
2026-05-07 16:37 49.26325 -58.60769 39760 ft 431 kts 240°
2026-05-07 16:37 49.23416 -58.68816 39757 ft 431 kts 240°
2026-05-07 16:38 49.20521 -58.76804 39753 ft 431 kts 240°
2026-05-07 16:38 49.17605 -58.84825 39748 ft 431 kts 240°
2026-05-07 16:39 49.14682 -58.92839 39743 ft 432 kts 240°
2026-05-07 16:39 49.11748 -59.00859 39745 ft 432 kts 240°
2026-05-07 16:40 49.08827 -59.08819 39740 ft 432 kts 240°
2026-05-07 16:40 49.05885 -59.16811 39740 ft 432 kts 240°
2026-05-07 16:41 49.02928 -59.24823 39732 ft 432 kts 240°
2026-05-07 16:41 48.99993 -59.32748 39732 ft 432 kts 240°
2026-05-07 16:42 48.97027 -59.40733 39727 ft 432 kts 240°
2026-05-07 16:42 48.94059 -59.48697 39727 ft 432 kts 240°
2026-05-07 16:43 48.91096 -59.56627 39722 ft 432 kts 240°
2026-05-07 16:43 48.88117 -59.64573 39722 ft 432 kts 240°
2026-05-07 16:44 48.85128 -59.72523 39717 ft 432 kts 240°
2026-05-07 16:44 48.82153 -59.80410 39720 ft 432 kts 240°
2026-05-07 16:45 48.79155 -59.88338 39711 ft 432 kts 240°
2026-05-07 16:45 48.76171 -59.96201 39714 ft 432 kts 240°
2026-05-07 16:46 48.73169 -60.04090 39707 ft 432 kts 240°
2026-05-07 16:46 48.70158 -60.11979 39711 ft 432 kts 240°
2026-05-07 16:47 48.67164 -60.19802 39709 ft 431 kts 240°
2026-05-07 16:47 48.64151 -60.27650 39704 ft 431 kts 240°
2026-05-07 16:48 48.61142 -60.35463 39700 ft 431 kts 240°
2026-05-07 16:48 48.58111 -60.43309 39704 ft 431 kts 240°
2026-05-07 16:49 48.55080 -60.51135 39698 ft 432 kts 240°
2026-05-07 16:49 48.52057 -60.58915 39699 ft 432 kts 240°
2026-05-07 16:50 48.49008 -60.66740 39690 ft 432 kts 240°
2026-05-07 16:50 48.45972 -60.74509 39689 ft 432 kts 240°
2026-05-07 16:51 48.42904 -60.82337 39685 ft 432 kts 240°
2026-05-07 16:51 48.39839 -60.90135 39682 ft 433 kts 240°
2026-05-07 16:52 48.36766 -60.97928 39673 ft 433 kts 240°
2026-05-07 16:52 48.33703 -61.05677 39683 ft 433 kts 240°
2026-05-07 16:53 48.30613 -61.13470 39680 ft 433 kts 240°
2026-05-07 16:53 48.27532 -61.21218 39683 ft 433 kts 240°
2026-05-07 16:54 48.24435 -61.28981 39668 ft 433 kts 240°
2026-05-07 16:54 48.21327 -61.36751 39676 ft 433 kts 240°
2026-05-07 16:55 48.18234 -61.44463 39666 ft 433 kts 240°
2026-05-07 16:55 48.15120 -61.52204 39669 ft 434 kts 240°
2026-05-07 16:56 48.11994 -61.59952 39666 ft 434 kts 240°
2026-05-07 16:56 48.07314 -61.71511 39661 ft 434 kts 240°
2026-05-07 16:57 48.04172 -61.79242 39663 ft 434 kts 240°
2026-05-07 16:57 48.01046 -61.86914 39663 ft 434 kts 240°
2026-05-07 16:58 47.97897 -61.94618 39661 ft 434 kts 240°
2026-05-07 16:58 47.94737 -62.02327 39664 ft 435 kts 240°
2026-05-07 16:59 47.91572 -62.10029 39662 ft 435 kts 240°
2026-05-07 16:59 47.88427 -62.17657 39663 ft 434 kts 240°
2026-05-07 17:00 47.86843 -62.21502 39896 ft 434 kts 237°
2026-05-07 17:00 47.85267 -62.25325 39700 ft 433 kts 237°
2026-05-07 17:00 47.82109 -62.32938 39662 ft 430 kts 237°
2026-05-07 17:01 47.79488 -62.39236 39660 ft 430 kts 237°
2026-05-07 17:01 47.76354 -62.46751 39662 ft 429 kts 237°
2026-05-07 17:02 47.73201 -62.54297 39662 ft 428 kts 237°
2026-05-07 17:02 47.70049 -62.61820 39663 ft 428 kts 237°
2026-05-07 17:03 47.66920 -62.69269 39660 ft 427 kts 237°
2026-05-07 17:03 47.63775 -62.76733 39662 ft 426 kts 237°
2026-05-07 17:04 47.60622 -62.84199 39662 ft 425 kts 237°
2026-05-07 17:04 47.57498 -62.91572 39660 ft 424 kts 237°
2026-05-07 17:05 47.54357 -62.98968 39660 ft 423 kts 237°
2026-05-07 17:05 47.51222 -63.06329 39654 ft 422 kts 237°
2026-05-07 17:06 47.48106 -63.13624 39654 ft 422 kts 237°
2026-05-07 17:06 47.44962 -63.20966 39657 ft 422 kts 237°
2026-05-07 17:07 47.41820 -63.28285 39661 ft 421 kts 237°
2026-05-07 17:07 47.38670 -63.35602 39659 ft 421 kts 237°
2026-05-07 17:08 47.35534 -63.42868 39665 ft 421 kts 237°
2026-05-07 17:08 47.32383 -63.50149 39670 ft 421 kts 236°
2026-05-07 17:09 47.29245 -63.57382 39673 ft 421 kts 236°
2026-05-07 17:09 47.26082 -63.64651 39660 ft 420 kts 236°
2026-05-07 17:10 47.22921 -63.71897 39665 ft 420 kts 236°
2026-05-07 17:10 47.19752 -63.79144 39663 ft 420 kts 236°
2026-05-07 17:11 47.16605 -63.86320 39664 ft 420 kts 236°
2026-05-07 17:11 47.13427 -63.93548 39663 ft 420 kts 236°
2026-05-07 17:12 47.10244 -64.00767 39662 ft 420 kts 236°
2026-05-07 17:12 47.07079 -64.07928 39659 ft 420 kts 236°
2026-05-07 17:13 47.03892 -64.15119 39656 ft 420 kts 236°
2026-05-07 17:13 47.00700 -64.22305 39652 ft 420 kts 236°
2026-05-07 17:14 46.97512 -64.29460 39654 ft 421 kts 236°
2026-05-07 17:14 46.94309 -64.36634 39653 ft 421 kts 236°
2026-05-07 17:15 46.91094 -64.43813 39652 ft 421 kts 236°
2026-05-07 17:15 46.87900 -64.50927 39656 ft 421 kts 236°
2026-05-07 17:16 46.84674 -64.58095 39652 ft 421 kts 236°
2026-05-07 17:16 46.81446 -64.65248 39649 ft 421 kts 236°
2026-05-07 17:17 46.78237 -64.72341 39651 ft 420 kts 236°
2026-05-07 17:17 46.75005 -64.79468 39651 ft 420 kts 236°
2026-05-07 17:18 46.71793 -64.86531 39653 ft 420 kts 236°
2026-05-07 17:18 46.68560 -64.93621 39655 ft 420 kts 236°
2026-05-07 17:19 46.65320 -65.00710 39655 ft 419 kts 236°
2026-05-07 17:19 46.62082 -65.07777 39656 ft 419 kts 236°
2026-05-07 17:20 46.58851 -65.14810 39657 ft 419 kts 236°
2026-05-07 17:20 46.55600 -65.21869 39664 ft 419 kts 236°
2026-05-07 17:21 46.52367 -65.28872 39664 ft 419 kts 236°
2026-05-07 17:21 46.49106 -65.35916 39665 ft 419 kts 236°
2026-05-07 17:22 46.45847 -65.42938 39665 ft 419 kts 236°
2026-05-07 17:22 46.42597 -65.49924 39668 ft 419 kts 236°
2026-05-07 17:23 46.39321 -65.56948 39667 ft 420 kts 235°
2026-05-07 17:23 46.36048 -65.63950 39672 ft 420 kts 235°
2026-05-07 17:24 46.32785 -65.70909 39676 ft 420 kts 235°
2026-05-07 17:24 46.29499 -65.77903 39674 ft 420 kts 235°
2026-05-07 17:25 46.26226 -65.84853 39674 ft 420 kts 235°
2026-05-07 17:25 46.22923 -65.91847 39675 ft 421 kts 235°
2026-05-07 17:26 46.19614 -65.98835 39685 ft 421 kts 235°
2026-05-07 17:26 46.16304 -66.05809 39686 ft 421 kts 235°
2026-05-07 17:27 46.13011 -66.12731 39677 ft 421 kts 235°
2026-05-07 17:27 46.09683 -66.19709 39684 ft 421 kts 235°
2026-05-07 17:28 46.06381 -66.26613 39692 ft 421 kts 235°
2026-05-07 17:28 46.03047 -66.33571 39697 ft 421 kts 235°
2026-05-07 17:29 45.99718 -66.40501 39698 ft 421 kts 235°
2026-05-07 17:29 45.96395 -66.47398 39689 ft 421 kts 235°
2026-05-07 17:30 45.93056 -66.54313 39690 ft 421 kts 235°
2026-05-07 17:30 45.89726 -66.61190 39689 ft 420 kts 235°
2026-05-07 17:31 45.86377 -66.68091 39691 ft 420 kts 236°
2026-05-07 17:31 45.83047 -66.74939 39692 ft 420 kts 236°
2026-05-07 17:32 45.79690 -66.81823 39693 ft 420 kts 236°
2026-05-07 17:32 45.76902 -66.87529 39695 ft 420 kts 236°
2026-05-07 17:33 45.72997 -66.95500 39701 ft 420 kts 236°
2026-05-07 17:33 45.69631 -67.02355 39701 ft 420 kts 236°
2026-05-07 17:34 45.66259 -67.09202 39703 ft 420 kts 236°
2026-05-07 17:34 45.62907 -67.15995 39704 ft 420 kts 236°
2026-05-07 17:35 45.59527 -67.22826 39705 ft 420 kts 236°
2026-05-07 17:35 45.56148 -67.29641 39707 ft 420 kts 236°
2026-05-07 17:36 45.52789 -67.36397 39710 ft 420 kts 236°
2026-05-07 17:36 45.49399 -67.43202 39707 ft 420 kts 236°
2026-05-07 17:37 45.46005 -67.49997 39713 ft 420 kts 236°
2026-05-07 17:37 45.42613 -67.56772 39716 ft 420 kts 236°
2026-05-07 17:38 45.39242 -67.63490 39720 ft 419 kts 236°
2026-05-07 17:38 45.35840 -67.70248 39723 ft 419 kts 236°
2026-05-07 17:39 45.31897 -67.76365 39728 ft 422 kts 224°
2026-05-07 17:39 45.27440 -67.81739 39722 ft 422 kts 224°
2026-05-07 17:40 45.22933 -67.87125 39719 ft 424 kts 224°
2026-05-07 17:40 45.18423 -67.92501 39722 ft 421 kts 224°
2026-05-07 17:41 45.13958 -67.97813 39726 ft 420 kts 224°
2026-05-07 17:41 45.09469 -68.03144 39723 ft 420 kts 224°
2026-05-07 17:42 45.04982 -68.08461 39721 ft 420 kts 224°
2026-05-07 17:42 45.00503 -68.13758 39725 ft 419 kts 224°
2026-05-07 17:43 44.96049 -68.19015 39724 ft 419 kts 224°
2026-05-07 17:43 44.91570 -68.24289 39727 ft 419 kts 224°
2026-05-07 17:44 44.87082 -68.29562 39724 ft 419 kts 224°
2026-05-07 17:44 44.82623 -68.34782 39725 ft 419 kts 224°
2026-05-07 17:45 44.78139 -68.40026 39729 ft 418 kts 224°
2026-05-07 17:45 44.73659 -68.45255 39730 ft 418 kts 224°
2026-05-07 17:46 44.69203 -68.50446 39731 ft 418 kts 224°
2026-05-07 17:46 44.64727 -68.55650 39734 ft 417 kts 224°
2026-05-07 17:47 44.60245 -68.60850 39736 ft 417 kts 224°
2026-05-07 17:47 44.55771 -68.66030 39730 ft 417 kts 224°
2026-05-07 17:48 44.52051 -68.70330 39728 ft 416 kts 224°
2026-05-07 17:48 44.46848 -68.76330 39734 ft 416 kts 224°
2026-05-07 17:49 44.42387 -68.81463 39738 ft 415 kts 224°
2026-05-07 17:49 44.38667 -68.85737 39733 ft 415 kts 224°
2026-05-07 17:50 44.34198 -68.90859 39744 ft 414 kts 224°
2026-05-07 17:50 44.29763 -68.95934 39747 ft 414 kts 224°
2026-05-07 17:51 44.25300 -69.01030 39747 ft 413 kts 224°
2026-05-07 17:51 44.20837 -69.06115 39747 ft 413 kts 224°
2026-05-07 17:52 44.16411 -69.11149 39749 ft 413 kts 224°
2026-05-07 17:52 44.11947 -69.16215 39748 ft 413 kts 224°
2026-05-07 17:53 44.07506 -69.21245 39748 ft 413 kts 224°
2026-05-07 17:53 44.03051 -69.26281 39743 ft 412 kts 224°
2026-05-07 17:54 43.98586 -69.31318 39748 ft 412 kts 224°
2026-05-07 17:54 43.94131 -69.36334 39751 ft 412 kts 224°
2026-05-07 17:55 43.89699 -69.41313 39763 ft 412 kts 224°
2026-05-07 17:55 43.85241 -69.46312 39765 ft 411 kts 224°
2026-05-07 17:56 43.80787 -69.51298 39766 ft 410 kts 224°
2026-05-07 17:56 43.76367 -69.56235 39766 ft 410 kts 224°
2026-05-07 17:57 43.72476 -69.60071 39593 ft 418 kts 215°
2026-05-07 17:57 43.68823 -69.62095 39294 ft 426 kts 206°
2026-05-07 17:57 43.66033 -69.63333 39079 ft 425 kts 206°
2026-05-07 17:58 43.63226 -69.64578 38713 ft 423 kts 207°
2026-05-07 17:58 43.60422 -69.65840 38111 ft 420 kts 207°
2026-05-07 17:58 43.57676 -69.67099 37394 ft 419 kts 208°
2026-05-07 17:58 43.54909 -69.68367 36690 ft 417 kts 208°
2026-05-07 17:59 43.52156 -69.69624 36015 ft 414 kts 208°
2026-05-07 17:59 43.49433 -69.70866 35355 ft 411 kts 209°
2026-05-07 17:59 43.46721 -69.72101 34696 ft 408 kts 209°
2026-05-07 17:59 43.44024 -69.73328 34037 ft 404 kts 210°
2026-05-07 18:00 43.41395 -69.74522 33277 ft 401 kts 210°
2026-05-07 18:00 43.38745 -69.75730 32392 ft 400 kts 210°
2026-05-07 18:00 43.36098 -69.76938 31458 ft 401 kts 210°
2026-05-07 18:00 43.33438 -69.78149 30532 ft 402 kts 210°
2026-05-07 18:01 43.30804 -69.79346 29617 ft 402 kts 210°
2026-05-07 18:01 43.28148 -69.80551 28558 ft 402 kts 210°
2026-05-07 18:01 43.25485 -69.81763 27417 ft 405 kts 209°
2026-05-07 18:01 43.22792 -69.82986 26377 ft 408 kts 208°
2026-05-07 18:02 43.17381 -69.85428 24599 ft 408 kts 207°
2026-05-07 18:02 43.14696 -69.86634 24015 ft 403 kts 206°
2026-05-07 18:02 43.12045 -69.87820 23479 ft 396 kts 206°
2026-05-07 18:03 43.09474 -69.88971 23054 ft 390 kts 206°
2026-05-07 18:03 43.06867 -69.90149 22564 ft 397 kts 206°
2026-05-07 18:03 43.04227 -69.91341 22074 ft 399 kts 206°
2026-05-07 18:03 43.01588 -69.92523 21580 ft 397 kts 205°
2026-05-07 18:04 42.99002 -69.93680 21088 ft 394 kts 205°
2026-05-07 18:04 42.96410 -69.94838 20600 ft 391 kts 205°
2026-05-07 18:04 42.93831 -69.95992 20120 ft 388 kts 205°
2026-05-07 18:04 42.91268 -69.97138 19618 ft 386 kts 205°
2026-05-07 18:05 42.88721 -69.98277 19134 ft 383 kts 204°
2026-05-07 18:05 42.86196 -69.99404 18629 ft 381 kts 204°
2026-05-07 18:05 42.83700 -70.00518 18140 ft 380 kts 204°
2026-05-07 18:05 42.81199 -70.01632 17602 ft 378 kts 204°
2026-05-07 18:06 42.78706 -70.02737 17099 ft 375 kts 204°
2026-05-07 18:06 42.76226 -70.03837 16611 ft 372 kts 204°
2026-05-07 18:06 42.73766 -70.04929 16110 ft 370 kts 204°
2026-05-07 18:06 42.71332 -70.06009 15736 ft 367 kts 204°
2026-05-07 18:07 42.68901 -70.07089 15595 ft 366 kts 204°
2026-05-07 18:07 42.66597 -70.08389 15457 ft 358 kts 215°
2026-05-07 18:07 42.64731 -70.10538 15329 ft 350 kts 232°
2026-05-07 18:07 42.63457 -70.13333 15189 ft 347 kts 244°
2026-05-07 18:08 42.62443 -70.16313 15035 ft 347 kts 245°
2026-05-07 18:08 42.61439 -70.19298 14719 ft 346 kts 245°
2026-05-07 18:08 42.60435 -70.22265 14155 ft 344 kts 246°
2026-05-07 18:08 42.59596 -70.25233 13685 ft 335 kts 250°
2026-05-07 18:09 42.58861 -70.28174 13342 ft 322 kts 250°
2026-05-07 18:09 42.58156 -70.30991 12990 ft 310 kts 250°
2026-05-07 18:09 42.57470 -70.33716 12658 ft 299 kts 251°
2026-05-07 18:09 42.56808 -70.36338 12245 ft 291 kts 251°
2026-05-07 18:10 42.56163 -70.38886 11893 ft 283 kts 251°
2026-05-07 18:10 42.55534 -70.41367 11629 ft 273 kts 251°
2026-05-07 18:10 42.54927 -70.43759 11383 ft 263 kts 251°
2026-05-07 18:10 42.54342 -70.46062 11089 ft 256 kts 251°
2026-05-07 18:11 42.53764 -70.48333 10740 ft 251 kts 252°
2026-05-07 18:11 42.53389 -70.49804 10543 ft 247 kts 252°
2026-05-07 18:11 42.52657 -70.52702 10334 ft 241 kts 253°
2026-05-07 18:11 42.52162 -70.54851 10110 ft 242 kts 254°
2026-05-07 18:12 42.51669 -70.57042 9847 ft 242 kts 254°
2026-05-07 18:12 42.51174 -70.59221 9592 ft 242 kts 254°
2026-05-07 18:12 42.50677 -70.61395 9320 ft 243 kts 254°
2026-05-07 18:12 42.50175 -70.63584 9059 ft 243 kts 255°
2026-05-07 18:13 42.49668 -70.65784 8799 ft 244 kts 255°
2026-05-07 18:13 42.49169 -70.67942 8543 ft 244 kts 255°
2026-05-07 18:13 42.48660 -70.70144 8279 ft 245 kts 255°
2026-05-07 18:13 42.48146 -70.72365 8001 ft 247 kts 255°
2026-05-07 18:14 42.47632 -70.74583 7792 ft 247 kts 255°
2026-05-07 18:14 42.47112 -70.76825 7575 ft 249 kts 255°
2026-05-07 18:14 42.46591 -70.79065 7334 ft 250 kts 255°
2026-05-07 18:14 42.45929 -70.81222 7088 ft 254 kts 242°
2026-05-07 18:15 42.44664 -70.82943 6827 ft 265 kts 215°
2026-05-07 18:15 42.42938 -70.83905 6592 ft 271 kts 202°
2026-05-07 18:15 42.41123 -70.84644 6349 ft 273 kts 201°
2026-05-07 18:15 42.39272 -70.85304 6036 ft 276 kts 193°
2026-05-07 18:16 42.37335 -70.85158 5792 ft 279 kts 170°
2026-05-07 18:16 42.35514 -70.84502 5626 ft 270 kts 167°
2026-05-07 18:16 42.33753 -70.83674 5382 ft 266 kts 155°
2026-05-07 18:16 42.32318 -70.82135 5154 ft 262 kts 136°
2026-05-07 18:17 42.31053 -70.80399 4995 ft 253 kts 136°
2026-05-07 18:17 42.29847 -70.78745 4977 ft 241 kts 136°
2026-05-07 18:17 42.28664 -70.77144 4985 ft 241 kts 137°
2026-05-07 18:17 42.27455 -70.75572 4916 ft 240 kts 142°
2026-05-07 18:18 42.26198 -70.74082 4732 ft 243 kts 138°
2026-05-07 18:18 42.24996 -70.72455 4419 ft 244 kts 136°
2026-05-07 18:18 42.23836 -70.70849 4211 ft 238 kts 136°
2026-05-07 18:18 42.22690 -70.69256 4019 ft 236 kts 136°
2026-05-07 18:19 42.21537 -70.67680 3810 ft 235 kts 139°
2026-05-07 18:19 42.20152 -70.66590 3641 ft 229 kts 168°
2026-05-07 18:19 42.18610 -70.66606 3523 ft 220 kts 201°
2026-05-07 18:19 42.17311 -70.67614 3394 ft 214 kts 224°
2026-05-07 18:20 42.16520 -70.69245 3265 ft 208 kts 256°
2026-05-07 18:20 42.16539 -70.71161 3139 ft 206 kts 287°
2026-05-07 18:20 42.17076 -70.72950 3017 ft 207 kts 295°
2026-05-07 18:20 42.17706 -70.74680 2999 ft 208 kts 297°
2026-05-07 18:21 42.18511 -70.76299 2991 ft 208 kts 309°
2026-05-07 18:21 42.19515 -70.77715 2988 ft 208 kts 315°
2026-05-07 18:21 42.20560 -70.79082 2990 ft 209 kts 315°
2026-05-07 18:21 42.21601 -70.80446 2986 ft 208 kts 315°
2026-05-07 18:22 42.22621 -70.81806 2977 ft 200 kts 314°
2026-05-07 18:22 42.23254 -70.82672 2971 ft 190 kts 313°
2026-05-07 18:22 42.24443 -70.84322 2951 ft 181 kts 313°
2026-05-07 18:22 42.25320 -70.85540 2891 ft 179 kts 313°
2026-05-07 18:23 42.26185 -70.86728 2669 ft 178 kts 314°
2026-05-07 18:23 42.27069 -70.87901 2396 ft 176 kts 314°
2026-05-07 18:23 42.27930 -70.89052 2157 ft 173 kts 314°
2026-05-07 18:23 42.28766 -70.90172 1907 ft 164 kts 314°
2026-05-07 18:24 42.29561 -70.91235 1709 ft 161 kts 314°
2026-05-07 18:24 42.30330 -70.92266 1493 ft 150 kts 313°
2026-05-07 18:24 42.31049 -70.93234 1289 ft 140 kts 314°
2026-05-07 18:24 42.31725 -70.94106 1045 ft 130 kts 314°
2026-05-07 18:25 42.32342 -70.94954 811 ft 125 kts 312°
2026-05-07 18:25 42.32911 -70.95714 735 ft 125 kts 314°
2026-05-07 18:25 42.33542 -70.96567 597 ft 130 kts 313°
2026-05-07 18:25 42.34174 -70.97439 470 ft 129 kts 313°
2026-05-07 18:26 42.34819 -70.98289 244 ft 127 kts 310°
2026-05-07 18:26 42.35434 -70.99124 84 ft 125 kts 312°
2026-05-07 18:26 42.36035 -70.99931 30 ft 108 kts 315°
2026-05-07 18:26 42.36485 -71.00530 32 ft 73 kts 315°
2026-05-07 18:27 42.36756 -71.00894 32 ft 38 kts 315°
2026-05-07 18:27 42.36896 -71.01082 32 ft 16 kts 314°
2026-05-07 18:27 42.36932 -71.01155 32 ft 8 kts 277°
2026-05-07 18:27 42.36927 -71.01200 32 ft 7 kts 253°
2026-05-07 18:28 42.36915 -71.01216 32 ft 0 kts 210°
2026-05-07 18:28 42.36912 -71.01218 32 ft 3 kts 210°
2026-05-07 18:28 42.36889 -71.01251 32 ft 4 kts 255°
2026-05-07 18:28 42.36901 -71.01294 32 ft 7 kts 300°
2026-05-07 18:29 42.36947 -71.01359 32 ft 13 kts 315°
2026-05-07 18:29 42.37027 -71.01466 32 ft 19 kts 315°
2026-05-07 18:29 42.37125 -71.01597 32 ft 21 kts 315°
2026-05-07 18:29 42.37226 -71.01734 31 ft 19 kts 315°
2026-05-07 18:30 42.37286 -71.01814 32 ft 12 kts 312°
2026-05-07 18:30 42.37279 -71.01892 32 ft 8 kts 230°
2026-05-07 18:30 42.37224 -71.01915 32 ft 8 kts 176°
2026-05-07 18:30 42.37184 -71.01871 32 ft 8 kts 124°
2026-05-07 18:31 42.37144 -71.01791 32 ft 12 kts 124°
2026-05-07 18:31 42.37127 -71.01757 32 ft 0 kts 124°
2026-05-07 18:31 42.37111 -71.01726 30 ft 8 kts 124°
2026-05-07 18:31 42.37075 -71.01662 32 ft 7 kts 132°
2026-05-07 18:32 42.37047 -71.01649 32 ft 2 kts 212°
2026-05-07 18:32 42.37043 -71.01669 32 ft 4 kts 251°
2026-05-07 18:32 42.37029 -71.01718 32 ft 2 kts 246°
2026-05-07 18:32 42.37023 -71.01736 32 ft 0 kts 245°